Location: Les Salelles
(44.4192°N, 4.1044°E)
Time: 15:25:14
(UTC+00:00)

X-37B - Pass Details

Date: 20 January 2021
Orbit: 383 x 391 km, 45.0° (Epoch: 10 February)

Event Time Altitude Azimuth Distance (km) Brightness Sun altitude
Rises 17:28:19 0° 220° (SW) 2,262 5.6 -9.3°
Reaches altitude 10° 17:30:37 10° 205° (SSW) 1,412 4.1 -9.7°
Maximum altitude 17:33:13 23° 150° (SSE) 874 2.2 -10.1°
Enters shadow 17:35:18 13° 101° (ESE) 1,246 2.6 -10.5°
